Location: Cheyres
(46.8153°N, 6.7877°E)
Time: 04:34:46
(UTC+00:00)

CUTE 1.7 + AOD 2 - Pass Details

Date: 03 July 2022
Orbit: 589 x 608 km, 97.7° (Epoch: 09 August)

Event Time Altitude Azimuth Distance (km) Brightness Sun altitude
Rises 02:27:39 0° 27° (NNE) 2,850 ? -10.3°
Reaches altitude 10° 02:30:22 10° 46° (NE) 1,938 ? -10.0°
Maximum altitude 02:33:23 19° 92° (E) 1,433 ? -9.7°
Drops below altitude 10° 02:36:23 10° 138° (SE) 1,919 ? -9.3°
Sets 02:39:04 0° 156° (SSE) 2,812 ? -9.0°
